This demonstration page uses our WeatherBlox Daily Observations layout. Learn more.

Hourly Observations for August 31, 2018

Temp ( °F °C ) Dew Point ( °F °C ) Humidity (%) Winds ( mph kmh ) Pressure ( in mb ) Visibility ( mi km ) Precip ( " mm )
12:15 am 00:15 Clear 69 20.7 69 20.5 99 99 SSE 9 15 29.83 1010 10 16.09344 0 0
12:35 am 00:35 Clear 69 20.7 69 20.5 99 99 SSE 8 13 29.8 1009 10 16.09344 0 0
12:55 am 00:55 Clear 69 20.5 69 20.3 99 99 SSE 8 13 29.8 1009 10 16.09344 0 0
1:15 am 01:15 Clear 68 20.2 68 20 99 99 SSE 9 15 29.8 1009 10 16.09344 0 0
1:35 am 01:35 Clear 68 20.1 68 20 99 99 SSE 8 13 29.8 1009 10 16.09344 0 0
1:55 am 01:55 Clear 68 20.1 68 20 99 99 SSE 8 13 29.8 1009 10 16.09344 0 0
2:15 am 02:15 Clear 68 20.1 68 20 99 99 SSE 6 9 29.8 1009 10 16.09344 0 0
2:35 am 02:35 Clear 68 20.1 68 20 99 99 SSE 7 11 29.77 1008 10 16.09344 0 0
2:55 am 02:55 Clear 68 20 68 20 100 100 SSE 7 11 29.77 1008 10 16.09344 0 0
3:15 am 03:15 Clear 67 19.6 67 19.6 100 100 SSE 7 11 29.77 1008 10 16.09344 0 0
3:35 am 03:35 Clear 67 19.5 67 19.5 100 100 SSE 7 11 29.77 1008 10 16.09344 0 0
3:55 am 03:55 Clear 67 19.3 67 19.3 100 100 SSE 7 11 29.77 1008 10 16.09344 0 0
4:15 am 04:15 Clear 67 19.5 67 19.5 100 100 SSE 6 9 29.74 1007 10 16.09344 0 0
4:35 am 04:35 Clear 67 19.2 67 19.2 100 100 SSE 7 11 29.74 1007 10 16.09344 0 0
4:55 am 04:55 Clear 66 19 66 19 100 100 SSE 8 13 29.74 1007 10 16.09344 0 0
5:15 am 05:15 Clear 66 18.7 66 18.7 100 100 SSE 7 11 29.74 1007 10 16.09344 0 0
5:35 am 05:35 Clear 66 18.8 66 18.8 100 100 S 8 13 29.74 1007 10 16.09344 0 0
5:55 am 05:55 Clear 66 19.1 66 19.1 100 100 S 7 11 29.74 1007 10 16.09344 0 0
6:15 am 06:15 Clear 67 19.3 67 19.2 99 99 S 7 11 29.74 1007 10 16.09344 0 0
6:35 am 06:35 Clear 67 19.5 67 19.2 98 98 SSE 7 11 29.74 1007 10 16.09344 0 0
6:55 am 06:55 Clear with Nearby Thunderstorms 67 19.3 66 19 98 98 Calm 29.74 1007 10 16.09344 0 0
7:15 am 07:15 Sunny with Nearby Thunderstorms 67 19.5 67 19.2 98 98 SSE 6 9 29.71 1006 10 16.09344 0 0
7:35 am 07:35 Sunny 67 19.3 67 19.2 99 99 SSE 6 9 29.71 1006 10 16.09344 0.01 0.254
7:55 am 07:55 Partly Cloudy 67 19.4 67 19.2 99 99 SE 8 13 29.71 1006 10 16.09344 0.02 0.508
8:15 am 08:15 Partly Cloudy with Light Thunderstorms 67 19.5 67 19.2 98 98 ESE 7 11 29.71 1006 10 16.09344 0 0
8:35 am 08:35 Partly Cloudy with Thunderstorms 67 19.5 67 19.3 99 99 ESE 7 11 29.71 1006 7 11.265408 0.02 0.508
8:55 am 08:55 Partly Cloudy with Thunderstorms 67 19.3 67 19.3 100 100 E 7 11 29.71 1006 10 16.09344 0.1 2.54
9:15 am 09:15 Sunny 67 19.3 67 19.3 100 100 NNE 6 9 29.71 1006 10 16.09344 0 0
9:35 am 09:35 Sunny 67 19.5 67 19.5 100 100 E 6 9 29.71 1006 10 16.09344 0 0
9:55 am 09:55 Sunny with Nearby Thunderstorms 68 20.1 68 20 99 99 ENE 5 7 29.71 1006 10 16.09344 0 0
10:15 am 10:15 Sunny 69 20.8 69 20.5 98 98 E 8 13 29.71 1006 10 16.09344 0 0
10:35 am 10:35 Sunny 71 21.5 69 20.6 95 95 NNE 12 19 29.71 1006 10 16.09344 0 0
10:55 am 10:55 Partly Cloudy 72 22 69 20.6 92 92 E 9 15 29.71 1006 10 16.09344 0 0
11:15 am 11:15 Sunny 75 23.7 69 20.8 84 84 E 9 15 29.71 1006 10 16.09344 0 0
11:35 am 11:35 Sunny 76 24.3 70 21 82 82 SE 12 19 29.71 1006 10 16.09344 0 0
11:55 am 11:55 Sunny 76 24.7 71 21.4 82 82 SE 8 13 29.65 1004 10 16.09344 0 0
12:15 pm 12:15 Sunny 78 25.3 71 21.6 80 80 SE 7 11 29.65 1004 10 16.09344 0 0
12:35 pm 12:35 Sunny 79 26.3 71 21.8 76 76 SSE 7 11 29.65 1004 10 16.09344 0 0
12:55 pm 12:55 Sunny 80 26.6 71 21.4 73 73 Calm 29.65 1004 10 16.09344 0 0
1:15 pm 13:15 Sunny 81 27.3 71 21.6 71 71 E 6 9 29.65 1004 10 16.09344 0 0
1:35 pm 13:35 Sunny 82 27.5 70 21.1 68 68 E 6 9 29.68 1005 10 16.09344 0 0
1:55 pm 13:55 Sunny 83 28.1 69 20.6 64 64 ESE 12 19 29.65 1004 10 16.09344 0 0
2:15 pm 14:15 Sunny 83 28.5 69 20.4 62 62 ESE 9 15 29.62 1003 10 16.09344 0 0
2:35 pm 14:35 Sunny 84 28.7 68 19.9 59 59 ESE 8 13 29.62 1003 10 16.09344 0 0
2:55 pm 14:55 Sunny 85 29.3 69 20.3 58 58 ESE 12 19 29.62 1003 10 16.09344 0 0
3:15 pm 15:15 Sunny 85 29.2 68 20.2 58 58 ESE 12 19 29.62 1003 10 16.09344 0 0
3:35 pm 15:35 Sunny 84 28.7 68 20.2 60 60 SE 9 15 29.62 1003 10 16.09344 0 0
3:55 pm 15:55 Sunny 85 29.5 69 20.6 59 59 SE 12 19 29.62 1003 10 16.09344 0 0
4:15 pm 16:15 Sunny 85 29.5 69 20.5 58 58 SE 10 17 29.62 1003 10 16.09344 0 0
4:35 pm 16:35 Sunny 86 30.2 69 20.7 57 57 SE 10 17 29.62 1003 10 16.09344 0 0
4:55 pm 16:55 Sunny 87 30.8 68 20.2 53 53 SSE 9 15 29.62 1003 10 16.09344 0 0
5:15 pm 17:15 Sunny 87 30.7 68 19.8 52 52 SE 6 9 29.62 1003 10 16.09344 0 0
5:35 pm 17:35 Sunny 87 30.8 68 20 53 53 ESE 7 11 29.62 1003 10 16.09344 0 0
5:55 pm 17:55 Sunny 87 30.4 68 20 54 54 SSE 6 9 29.62 1003 10 16.09344 0 0
6:15 pm 18:15 Sunny 87 30.3 71 21.9 61 61 E 5 7 29.62 1003 10 16.09344 0 0
6:35 pm 18:35 Sunny 85 29.4 71 21.4 62 62 ESE 5 7 29.62 1003 10 16.09344 0 0
6:55 pm 18:55 Sunny 83 28.5 73 22.8 71 71 E 5 7 29.62 1003 10 16.09344 0 0
7:15 pm 19:15 Sunny 81 27.2 74 23.2 79 79 NE 7 11 29.65 1004 10 16.09344 0 0
7:35 pm 19:35 Sunny 79 26.1 74 23.6 86 86 NE 7 11 29.65 1004 10 16.09344 0 0
7:55 pm 19:55 Sunny 77 25.1 75 23.7 92 92 NE 7 11 29.65 1004 10 16.09344 0 0
8:15 pm 20:15 Clear 76 24.5 74 23.3 93 93 NNE 8 13 29.68 1005 10 16.09344 0 0
8:35 pm 20:35 Clear with Rain 76 24.3 74 23.2 94 94 NNE 6 9 29.68 1005 7 11.265408 0 0
8:55 pm 20:55 Clear with Light Rain 75 23.7 73 23 96 96 NNE 7 11 29.68 1005 10 16.09344 0 0
9:15 pm 21:15 Clear 75 23.7 73 23 96 96 NE 6 9 29.68 1005 10 16.09344 0 0
9:35 pm 21:35 Clear 74 23.4 73 22.8 96 96 NNE 5 7 29.68 1005 10 16.09344 0 0
9:55 pm 21:55 Clear 74 23.2 73 22.8 98 98 NNE 8 13 29.68 1005 10 16.09344 0 0
10:15 pm 22:15 Clear 74 23.1 73 22.6 97 97 NNE 7 11 29.68 1005 10 16.09344 0 0
10:35 pm 22:35 Clear 74 23.2 73 22.7 97 97 NNE 3 6 29.71 1006 10 16.09344 0 0
10:55 pm 22:55 Clear 73 23 73 22.5 97 97 ENE 8 13 29.68 1005 10 16.09344 0 0
11:15 pm 23:15 Clear 74 23.3 73 22.8 97 97 Calm 29.71 1006 10 16.09344 0 0
11:35 pm 23:35 Clear 74 23.2 73 22.9 98 98 N 5 7 29.71 1006 10 16.09344 0 0
11:55 pm 23:55 Partly Cloudy with Nearby Thunderstorms 74 23.5 73 22.9 96 96 SSW 13 20 29.77 1008 10 16.09344 0 0

Powered by AerisWeather